TimeEST,TemperatureF,Dew PointF,Humidity,Sea Level PressureIn,VisibilityMPH,Wind Direction,Wind SpeedMPH,Gust SpeedMPH,PrecipitationIn,Events,Conditions,WindDirDegrees,DateUTC
12:56 AM,30.0,19.9,66,29.78,10.0,WNW,16.1,-,N/A,,Partly Cloudy,290,2012-12-28 05:56:00
1:56 AM,30.0,19.0,64,29.80,10.0,NW,18.4,27.6,N/A,,Partly Cloudy,320,2012-12-28 06:56:00
2:56 AM,30.0,19.0,64,29.85,10.0,WNW,12.7,-,N/A,,Partly Cloudy,300,2012-12-28 07:56:00
3:56 AM,30.9,19.0,61,29.88,10.0,NW,16.1,21.9,N/A,,Mostly Cloudy,320,2012-12-28 08:56:00
4:56 AM,30.0,19.0,64,29.90,10.0,NNW,15.0,21.9,N/A,,Mostly Cloudy,330,2012-12-28 09:56:00
5:56 AM,30.0,19.0,64,29.94,10.0,NW,8.1,-,N/A,,Mostly Cloudy,310,2012-12-28 10:56:00
6:56 AM,28.9,19.0,67,29.96,10.0,NW,9.2,-,N/A,,Mostly Cloudy,320,2012-12-28 11:56:00
7:56 AM,30.9,19.9,64,29.97,10.0,NW,11.5,-,N/A,,Mostly Cloudy,310,2012-12-28 12:56:00
8:56 AM,33.1,21.0,61,29.99,10.0,NNW,15.0,19.6,N/A,,Scattered Clouds,330,2012-12-28 13:56:00
9:56 AM,35.1,21.9,59,30.01,10.0,NNW,15.0,20.7,N/A,,Scattered Clouds,330,2012-12-28 14:56:00
10:56 AM,36.0,21.9,57,30.01,10.0,NW,12.7,21.9,N/A,,Partly Cloudy,320,2012-12-28 15:56:00
11:56 AM,37.0,21.9,54,29.99,10.0,NW,12.7,20.7,N/A,,Partly Cloudy,310,2012-12-28 16:56:00
12:56 PM,39.0,21.9,50,29.98,10.0,NNW,13.8,19.6,N/A,,Partly Cloudy,330,2012-12-28 17:56:00
1:56 PM,39.9,21.9,49,29.98,10.0,NW,10.4,-,N/A,,Partly Cloudy,320,2012-12-28 18:56:00
2:56 PM,39.0,23.0,53,29.99,10.0,NW,10.4,-,N/A,,Partly Cloudy,320,2012-12-28 19:56:00
3:56 PM,37.0,23.0,57,30.00,10.0,WNW,10.4,-,N/A,,Scattered Clouds,300,2012-12-28 20:56:00
4:56 PM,35.1,23.0,61,30.01,10.0,WNW,9.2,-,N/A,,Scattered Clouds,290,2012-12-28 21:56:00
5:56 PM,34.0,23.0,64,30.04,10.0,West,4.6,-,N/A,,Scattered Clouds,280,2012-12-28 22:56:00
7:56 PM,30.9,23.0,72,30.03,10.0,Calm,Calm,-,N/A,,Scattered Clouds,0,2012-12-29 00:56:00
8:56 PM,28.9,21.9,75,30.05,10.0,WSW,5.8,-,N/A,,Scattered Clouds,240,2012-12-29 01:56:00
9:56 PM,28.0,21.9,78,30.05,10.0,Calm,Calm,-,N/A,,Scattered Clouds,0,2012-12-29 02:56:00
10:56 PM,28.0,21.9,78,30.06,10.0,Calm,Calm,-,N/A,,Scattered Clouds,0,2012-12-29 03:56:00
11:56 PM,27.0,21.9,81,30.05,10.0,West,3.5,-,N/A,,Partly Cloudy,270,2012-12-29 04:56:00